Home > Weather > Jersey City > Past weeks

Flag for U.S.A. Weather for the Past 2 Weeks in Jersey City, New Jersey, U.S.A.

Now
33 °F

Overcast.


Feels Like: 25 °F
Forecast: 30 / 39 °F
Wind: 9 mph from Southwest

Location: Newark International Airport

Current Time: Feb 10, 2016 at 6:22:54 AM

Latest Report: Feb 10, 2016 at 5:51 AM


Visibility: 7 mi

Pressure: 29.60 "Hg

Humidity: 88%

Dew point: 30 °F

Location of Jersey CityLocation

Historic Weather in Jersey City — Graph

°F

Jersey City Temperature Yesterday

Maximum temperature yesterday: 36 °F (at 3:51 PM)
Minimum temperature yesterday: 28 °F (at 5:51 AM)
Average temperature yesterday: 32 °F

High & Low Weather Summary for the Past Weeks

 TemperatureHumidityPressure
High58 °F (Feb 3, 2:51 PM)100% (Feb 3, 11:51 PM)30.44 "Hg (Feb 3, 11:51 PM)
Low26 °F (Jan 28, 6:51 AM)37% (Jan 27, 3:51 PM)29.47 "Hg (Jan 29, 12:51 PM)
Average39 °F66%29.97 "Hg
* Reported Jan 26 4:51 AM — Feb 10 4:51 AM, Jersey City, Weather by CustomWeather, © 2016

Note: Actual official high and low records may vary slightly from our data, if they occured in-between our weather recording intervals... More about our weather records

Advertising

Jersey City Weather History for the Previous 24 Hours

 ConditionsComfort  
Time TempWeatherWind HumidityBarometerVisibility
4:51 AM
Wed, Feb 10
33 °FLow clouds.7 mph88%29.59 "Hg8 mi
4:04 AM32 °FOvercast.7 mph93%29.59 "Hg7 mi
3:51 AM33 °FOvercast.7 mph88%29.59 "Hg7 mi
3:02 AM34 °FFog.6 mph87%29.59 "Hg4 mi
2:51 AM32 °FLight freezing rain. Ice fog.6 mph92%29.59 "Hg3 mi
1:57 AM32 °FLight freezing rain. Ice fog.No wind93%29.60 "Hg3 mi
12:51 AM32 °FLight snow. Ice fog.5 mph88%29.60 "Hg3 mi
11:51 PM
Tue, Feb 9
33 °FLight snow. Fog.5 mph85%29.60 "Hg4 mi
11:04 PM34 °FLight snow. Mostly cloudy.No wind81%29.61 "Hg7 mi
9:51 PM32 °FLight snow. Overcast.No wind82%29.62 "Hg8 mi
8:51 PM33 °FLight snow. Mostly cloudy.5 mph78%29.62 "Hg7 mi
7:51 PM34 °FLight snow. Mostly cloudy.3 mph73%29.62 "Hg7 mi
6:51 PM35 °FMostly cloudy.6 mph70%29.61 "Hg10 mi
5:51 PM34 °FMostly cloudy.5 mph73%29.60 "Hg10 mi
4:51 PM35 °FBroken clouds.3 mph64%29.59 "Hg10 mi
3:51 PM36 °FCloudy.No wind64%29.57 "Hg10 mi
2:51 PM35 °FMore clouds than sun.No wind70%29.57 "Hg10 mi
1:51 PM33 °FMostly cloudy.3 mph72%29.58 "Hg10 mi
12:51 PM33 °FOvercast.3 mph70%29.59 "Hg10 mi
11:51 AM32 °FOvercast.12 mph75%29.60 "Hg10 mi
10:51 AM31 °FOvercast.14 mph79%29.62 "Hg10 mi
9:51 AM29 °FLight snow. Overcast.14 mph82%29.65 "Hg9 mi
8:51 AM30 °FLight snow. Mostly cloudy.13 mph82%29.67 "Hg8 mi
7:51 AM30 °FMostly cloudy.7 mph79%29.68 "Hg10 mi
6:51 AM29 °FLow clouds.9 mph85%29.68 "Hg10 mi
Weather by CustomWeather, © 2016

See weather overviewHow to use our weather pages